Weather History for PHLI - November, 2013

Change the Weather History Date:

Monday, November 11, 2013

  Actual Average Record
Temperature  
Mean Temperature 73 °F 76 °F  
Max Temperature 79 °F 81 °F 84 °F (1957)
Min Temperature 66 °F 71 °F 63 °F (1950)
Degree Days  
Heating Degree Days 0 0  
Month to date heating degree days 0 0  
Since 1 July heating degree days 0 0  
Cooling Degree Days 8 11  
Month to date cooling degree days 121 128  
Year to date cooling degree days 3267 3495  
Growing Degree Days 24 (Base 50)    
Moisture  
Dew Point 59 °F    
Average Humidity 59    
Maximum Humidity 70    
Minimum Humidity 48    
Precipitation  
Precipitation 0.02 in 0.15 in 3.03 in (1955)
Month to date precipitation 2.75 1.67  
Year to date precipitation 30.31 29.06  
Snow  
Snow 0.00 in - - ()
Month to date snowfall 0.0  
Since 1 July snowfall 0.0  
Since 1 September snowfall 0.0  
Snow Depth 0.00 in    
Sea Level Pressure  
Sea Level Pressure 29.99 in    
Wind  
Wind Speed 17 mph (NNE)    
Max Wind Speed 26 mph    
Max Gust Speed 31 mph    
Visibility 10 miles    
Events      
T = Trace of Precipitation, MM = Missing Value Source: NWS Daily Summary

Daily Weather History Graph

Daily Weather History Graph

Search for Another Location

Airport or City:

Trip Planner

Search our weather history database for the weather conditions in past years. The results will help you decide how hot, cold, wet, or windy it might be!

Date:

Astronomy

Nov. 11, 2013 Rise Set
Actual Time 6:47 AM HST 5:55 PM HST
Civil Twilight 6:23 AM HST 6:19 PM HST
Nautical Twilight 5:56 AM HST 6:45 PM HST
Astronomical Twilight 5:30 AM HST 7:12 PM HST
Moon 2:05 PM HST (11/11) 1:26 AM HST (11/11)
Length of Visible Light 11h 55m
Length of Day
11h 08m
Waxing Gibbous, 68% of the Moon is Illuminated
Nov 11
Waxing Gibbous
Nov 17
Full
Nov 25
Last Quarter
Dec 2
New
Dec 9
First Quarter

Hourly Weather History & Observations

Time (HST) Temp. Dew Point Humidity Pressure Visibility Wind Dir Wind Speed Gust Speed Precip Events Conditions
12:53 AM 73.0 °F 60.1 °F 64% 30.01 in 10.0 mi NE 24.2 mph - N/A   Mostly Cloudy
1:53 AM 73.0 °F 57.9 °F 59% 30.00 in 10.0 mi NNE 21.9 mph - N/A   Partly Cloudy
2:53 AM 73.0 °F 57.9 °F 59% 29.99 in 10.0 mi NNE 23.0 mph - N/A   Mostly Cloudy
3:53 AM 73.0 °F 61.0 °F 66% 29.98 in 10.0 mi NE 21.9 mph 31.1 mph N/A   Scattered Clouds
4:53 AM 73.0 °F 60.1 °F 64% 29.98 in 10.0 mi NE 23.0 mph 29.9 mph N/A   Mostly Cloudy
5:53 AM 70.0 °F 57.9 °F 65% 29.99 in 10.0 mi NNE 20.7 mph 28.8 mph 0.02 in   Mostly Cloudy
6:53 AM 72.0 °F 60.1 °F 66% 30.00 in 10.0 mi NE 21.9 mph - 0.00 in   Overcast
7:53 AM 73.9 °F 60.1 °F 62% 30.02 in 10.0 mi NNE 23.0 mph 27.6 mph N/A   Mostly Cloudy
8:53 AM 75.0 °F 60.1 °F 60% 30.03 in 10.0 mi NNE 18.4 mph 26.5 mph 0.00 in   Mostly Cloudy
9:53 AM 75.9 °F 60.1 °F 58% 30.03 in 10.0 mi NE 20.7 mph 28.8 mph N/A   Mostly Cloudy
10:53 AM 77.0 °F 60.1 °F 56% 30.01 in 10.0 mi NE 19.6 mph 27.6 mph N/A   Mostly Cloudy
11:53 AM 77.0 °F 59.0 °F 54% 29.99 in 10.0 mi NE 16.1 mph 26.5 mph N/A   Mostly Cloudy
12:53 PM 78.1 °F 57.0 °F 48% 29.97 in 10.0 mi NNE 18.4 mph 26.5 mph N/A   Partly Cloudy
1:53 PM 77.0 °F 57.9 °F 52% 29.95 in 10.0 mi NNE 19.6 mph - N/A   Clear
2:53 PM 75.9 °F 60.1 °F 58% 29.94 in 10.0 mi NE 16.1 mph - N/A   Mostly Cloudy
3:53 PM 75.9 °F 60.1 °F 58% 29.94 in 10.0 mi NNE 16.1 mph - N/A   Partly Cloudy
4:53 PM 73.9 °F 59.0 °F 59% 29.95 in 10.0 mi NNE 15.0 mph - N/A   Scattered Clouds
5:53 PM 72.0 °F 57.9 °F 61% 29.96 in 10.0 mi NNE 13.8 mph - N/A   Partly Cloudy
6:53 PM 71.1 °F 59.0 °F 66% 29.97 in 10.0 mi NNE 16.1 mph 20.7 mph 0.00 in   Clear
7:53 PM 69.1 °F 57.9 °F 68% 29.99 in 10.0 mi North 8.1 mph - N/A   Partly Cloudy
8:53 PM 69.1 °F 57.9 °F 68% 30.01 in 10.0 mi NNW 6.9 mph - N/A   Partly Cloudy
9:53 PM 70.0 °F 59.0 °F 68% 30.01 in 10.0 mi North 6.9 mph - N/A   Scattered Clouds
10:53 PM 69.1 °F 59.0 °F 70% 30.01 in 10.0 mi North 5.8 mph - N/A   Scattered Clouds
11:53 PM 66.0 °F 57.9 °F 75% 30.00 in 10.0 mi WNW 4.6 mph - N/A   Partly Cloudy